When you browse on this site, cookies collect data to enhance your experience and personalize the content and advertising you see.
Visit our Privacy Policy to learn more. By continuing to use the site, you agree to this use of cookies and data.
  • în România
  • Lista ţărilor
  • Pe 7 zile
  • Temperatura apei
  • Hartă satelitară
  • Meteo pe hartă
  • Widget-uri
  • user-avatar
    Intrare

    Meteo pe oră la Shahabad

    Astăzi, 17 Februarie, Duminică

    Timp Temperatura Precipitaţii Vânt Presiune Umiditate
    00:00 +13°C° 0 mm 3 m/s 744 mmHg 93%
    01:00 +13°C° 0 mm 3 m/s 743 mmHg 94%
    02:00 +13°C° 0 mm 3 m/s 743 mmHg 95%
    03:00 +12°C° 0 mm 3 m/s 743 mmHg 96%
    04:00 +12°C° 0 mm 3 m/s 743 mmHg 96%
    05:00 +12°C° 0 mm 4 m/s 742 mmHg 95%
    06:00 +13°C° 0 mm 4 m/s 742 mmHg 93%
    07:00 +13°C° 0 mm 4 m/s 743 mmHg 90%
    08:00 +14°C° 0 mm 5 m/s 743 mmHg 88%
    09:00 +16°C° 0 mm 5 m/s 743 mmHg 79%
    10:00 +19°C° 0 mm 5 m/s 743 mmHg 70%
    11:00 +21°C° 0 mm 5 m/s 744 mmHg 61%
    12:00 +22°C° 0 mm 5 m/s 743 mmHg 59%
    13:00 +23°C° 0 mm 5 m/s 742 mmHg 57%
    14:00 +23°C° 0 mm 5 m/s 741 mmHg 55%
    15:00 +22°C° 0 mm 5 m/s 741 mmHg 60%
    16:00 +21°C° 0 mm 4 m/s 741 mmHg 65%
    17:00 +20°C° 0 mm 3 m/s 740 mmHg 70%
    18:00 +19°C° 0 mm 3 m/s 741 mmHg 72%
    19:00 +18°C° 0 mm 3 m/s 741 mmHg 75%
    20:00 +16°C° 0 mm 3 m/s 741 mmHg 77%
    21:00 +16°C° 0 mm 3 m/s 741 mmHg 78%
    22:00 +14°C° 0 mm 3 m/s 741 mmHg 80%
    23:00 +14°C° 0 mm 3 m/s 741 mmHg 81%

    Mâine, 18 Februarie, Luni

    Timp Temperatura Precipitaţii Vânt Presiune Umiditate
    00:00 +14°C° 0 mm 3 m/s 741 mmHg 81%
    01:00 +14°C° 0 mm 3 m/s 741 mmHg 80%
    02:00 +14°C° 0 mm 3 m/s 740 mmHg 79%
    03:00 +13°C° 0 mm 3 m/s 740 mmHg 81%
    04:00 +13°C° 0 mm 3 m/s 740 mmHg 82%
    05:00 +12°C° 0 mm 3 m/s 740 mmHg 84%
    06:00 +13°C° 0 mm 3 m/s 740 mmHg 81%
    07:00 +14°C° 0 mm 3 m/s 741 mmHg 78%
    08:00 +16°C° 0 mm 3 m/s 741 mmHg 74%
    09:00 +18°C° 0 mm 3 m/s 742 mmHg 65%
    10:00 +20°C° 0 mm 3 m/s 742 mmHg 56%
    11:00 +22°C° 0 mm 3 m/s 742 mmHg 48%
    12:00 +24°C° 0 mm 3 m/s 742 mmHg 47%
    13:00 +23°C° 0 mm 4 m/s 741 mmHg 47%
    14:00 +25°C° 0 mm 4 m/s 741 mmHg 47%
    15:00 +24°C° 0 mm 3 m/s 740 mmHg 51%
    16:00 +23°C° 0 mm 2 m/s 740 mmHg 56%
    17:00 +21°C° 0 mm 2 m/s 740 mmHg 61%
    18:00 +21°C° 0 mm 1 m/s 741 mmHg 60%
    19:00 +21°C° 0 mm 1 m/s 741 mmHg 59%
    20:00 +18°C° 0 mm 0 m/s 742 mmHg 58%
    21:00 +20°C° 0 mm 1 m/s 742 mmHg 59%
    22:00 +18°C° 0 mm 2 m/s 742 mmHg 59%
    23:00 +18°C° 0 mm 3 m/s 742 mmHg 60%

    Poimâine, 19 Februarie, Marţi

    Timp Temperatura Precipitaţii Vânt Presiune Umiditate
    00:00 +17°C° 0.1 mm 3 m/s 742 mmHg 66%
    01:00 +17°C° 0.1 mm 4 m/s 742 mmHg 72%
    02:00 +15°C° 0.1 mm 4 m/s 742 mmHg 77%
    03:00 +14°C° 0.1 mm 4 m/s 742 mmHg 80%
    04:00 +14°C° 0.1 mm 4 m/s 742 mmHg 82%
    05:00 +13°C° 0.1 mm 4 m/s 742 mmHg 85%
    06:00 +14°C° 0 mm 4 m/s 743 mmHg 81%
    07:00 +15°C° 0 mm 4 m/s 744 mmHg 77%
    08:00 +17°C° 0 mm 4 m/s 745 mmHg 74%
    09:00 +19°C° 0 mm 5 m/s 745 mmHg 66%
    10:00 +21°C° 0 mm 5 m/s 745 mmHg 59%
    11:00 +23°C° 0 mm 6 m/s 746 mmHg 52%
    12:00 +23°C° 0 mm 5 m/s 745 mmHg 52%
    13:00 +25°C° 0 mm 4 m/s 745 mmHg 51%
    14:00 +25°C° 0 mm 3 m/s 744 mmHg 51%
    15:00 +24°C° 0 mm 3 m/s 744 mmHg 55%
    16:00 +22°C° 0 mm 3 m/s 744 mmHg 59%
    17:00 +23°C° 0 mm 2 m/s 744 mmHg 63%
    18:00 +21°C° 0 mm 2 m/s 744 mmHg 63%
    19:00 +19°C° 0 mm 2 m/s 745 mmHg 63%
    20:00 +18°C° 0 mm 2 m/s 745 mmHg 62%
    21:00 +18°C° 0 mm 3 m/s 745 mmHg 61%
    22:00 +19°C° 0 mm 3 m/s 745 mmHg 59%
    23:00 +19°C° 0 mm 3 m/s 745 mmHg 57%

    20 Februarie, Miercuri

    Timp Temperatura Precipitaţii Vânt Presiune Umiditate
    00:00 +18°C° 0 mm 3 m/s 745 mmHg 55%
    01:00 +18°C° 0 mm 3 m/s 745 mmHg 53%
    02:00 +17°C° 0 mm 3 m/s 744 mmHg 52%
    03:00 +17°C° 0 mm 2 m/s 744 mmHg 50%
    04:00 +17°C° 0 mm 2 m/s 744 mmHg 49%
    05:00 +16°C° 0 mm 1 m/s 744 mmHg 48%
    06:00 +18°C° 0 mm 1 m/s 744 mmHg 48%
    07:00 +19°C° 0 mm 1 m/s 745 mmHg 49%
    08:00 +17°C° 0 mm 0 m/s 746 mmHg 49%
    09:00 +18°C° 0 mm 0 m/s 746 mmHg 48%
    10:00 +21°C° 0 mm 1 m/s 747 mmHg 48%
    11:00 +22°C° 0 mm 1 m/s 747 mmHg 48%
    12:00 +22°C° 0 mm 1 m/s 747 mmHg 48%
    13:00 +23°C° 0 mm 1 m/s 746 mmHg 48%
    14:00 +24°C° 0 mm 1 m/s 746 mmHg 49%
    15:00 +22°C° 0 mm 1 m/s 746 mmHg 56%
    16:00 +21°C° 0 mm 1 m/s 745 mmHg 64%
    17:00 +20°C° 0 mm 1 m/s 745 mmHg 71%
    18:00 +20°C° 0 mm 1 m/s 746 mmHg 71%
    19:00 +18°C° 0 mm 2 m/s 746 mmHg 70%
    20:00 +18°C° 0 mm 2 m/s 746 mmHg 70%
    21:00 +18°C° 0 mm 2 m/s 747 mmHg 68%
    22:00 +17°C° 0 mm 2 m/s 747 mmHg 67%
    23:00 +18°C° 0 mm 1 m/s 747 mmHg 66%

    21 Februarie, Joi

    Timp Temperatura Precipitaţii Vânt Presiune Umiditate
    00:00 +17°C° 0 mm 2 m/s 746 mmHg 61%
    01:00 +17°C° 0 mm 2 m/s 746 mmHg 57%
    02:00 +17°C° 0 mm 3 m/s 746 mmHg 52%
    03:00 +17°C° 0 mm 3 m/s 746 mmHg 47%
    04:00 +17°C° 0 mm 2 m/s 746 mmHg 43%
    05:00 +18°C° 0 mm 2 m/s 746 mmHg 38%
    06:00 +18°C° 0 mm 2 m/s 746 mmHg 39%
    07:00 +20°C° 0 mm 1 m/s 747 mmHg 41%
    08:00 +21°C° 0 mm 1 m/s 748 mmHg 43%
    09:00 +23°C° 0 mm 2 m/s 748 mmHg 41%
    10:00 +24°C° 0 mm 2 m/s 748 mmHg 39%
    11:00 +26°C° 0 mm 3 m/s 748 mmHg 37%
    12:00 +27°C° 0 mm 3 m/s 748 mmHg 37%
    13:00 +28°C° 0 mm 3 m/s 747 mmHg 38%
    14:00 +29°C° 0 mm 3 m/s 746 mmHg 38%
    15:00 +28°C° 0 mm 3 m/s 746 mmHg 44%
    16:00 +27°C° 0 mm 3 m/s 745 mmHg 49%
    17:00 +25°C° 0 mm 2 m/s 745 mmHg 55%
    18:00 +24°C° 0 mm 2 m/s 745 mmHg 57%
    19:00 +21°C° 0 mm 2 m/s 746 mmHg 58%
    20:00 +21°C° 0 mm 1 m/s 746 mmHg 60%
    21:00 +20°C° 0 mm 2 m/s 746 mmHg 58%
    22:00 +19°C° 0 mm 2 m/s 746 mmHg 57%
    23:00 +19°C° 0 mm 2 m/s 746 mmHg 55%

    22 Februarie, Vineri

    Timp Temperatura Precipitaţii Vânt Presiune Umiditate
    00:00 +19°C° 0 mm 2 m/s 745 mmHg 53%
    01:00 +20°C° 0 mm 2 m/s 745 mmHg 51%
    02:00 +20°C° 0 mm 2 m/s 745 mmHg 49%
    03:00 +19°C° 0 mm 2 m/s 744 mmHg 52%
    04:00 +18°C° 0 mm 2 m/s 744 mmHg 56%
    05:00 +18°C° 0 mm 2 m/s 744 mmHg 59%
    06:00 +18°C° 0 mm 2 m/s 744 mmHg 61%
    07:00 +19°C° 0 mm 2 m/s 745 mmHg 62%
    08:00 +19°C° 0 mm 2 m/s 745 mmHg 64%
    09:00 +21°C° 0 mm 2 m/s 746 mmHg 58%
    10:00 +25°C° 0 mm 2 m/s 746 mmHg 51%
    11:00 +27°C° 0 mm 2 m/s 746 mmHg 45%
    12:00 +28°C° 0 mm 2 m/s 745 mmHg 42%
    13:00 +29°C° 0 mm 2 m/s 745 mmHg 40%
    14:00 +30°C° 0 mm 2 m/s 744 mmHg 38%
    15:00 +29°C° 0 mm 2 m/s 743 mmHg 42%
    16:00 +28°C° 0 mm 2 m/s 743 mmHg 47%
    17:00 +27°C° 0 mm 2 m/s 743 mmHg 51%
    18:00 +25°C° 0 mm 2 m/s 743 mmHg 55%
    19:00 +23°C° 0 mm 2 m/s 744 mmHg 58%
    20:00 +21°C° 0 mm 3 m/s 744 mmHg 62%
    21:00 +20°C° 0 mm 3 m/s 744 mmHg 61%
    22:00 +20°C° 0 mm 3 m/s 744 mmHg 60%
    23:00 +19°C° 0 mm 3 m/s 744 mmHg 59%
    Arată mai mult